Time,TemperatureF,DewpointF,PressureIn,WindDirection,WindDirectionDegrees,WindSpeedMPH,WindSpeedGustMPH,Humidity,HourlyPrecipIn,Conditions,Clouds,dailyrainin,SoftwareType,DateUTC
2013-11-22 00:13:00,44.7,41.0,29.46,SSW,197,0.0,1.0,88,0.00,,,0.00,weatherlink.com 1.10,2013-11-22 05:13:00,
2013-11-22 00:28:00,44.5,41.0,29.45,SSW,197,0.0,0.0,88,0.00,,,0.00,weatherlink.com 1.10,2013-11-22 05:28:00,
2013-11-22 00:43:00,44.4,41.0,29.44,SSW,197,0.0,0.0,88,0.00,,,0.00,weatherlink.com 1.10,2013-11-22 05:43:00,
2013-11-22 00:59:00,44.4,41.0,29.45,SSW,197,0.0,0.0,88,0.00,,,0.00,weatherlink.com 1.10,2013-11-22 05:59:00,
2013-11-22 01:14:00,44.4,41.0,29.45,SSW,203,0.0,1.0,88,0.00,,,0.00,weatherlink.com 1.10,2013-11-22 06:14:00,
2013-11-22 01:29:00,44.4,41.0,29.45,SW,229,0.0,2.0,88,0.00,,,0.00,weatherlink.com 1.10,2013-11-22 06:29:00,
2013-11-22 01:44:00,44.5,41.0,29.44,SW,229,0.0,1.0,88,0.00,,,0.00,weatherlink.com 1.10,2013-11-22 06:44:00,
2013-11-22 01:59:00,44.4,41.0,29.44,SW,229,0.0,1.0,88,0.00,,,0.00,weatherlink.com 1.10,2013-11-22 06:59:00,
2013-11-22 02:14:00,44.4,41.0,29.44,SSW,204,0.0,1.0,88,0.00,,,0.00,weatherlink.com 1.10,2013-11-22 07:14:00,
2013-11-22 02:29:00,44.4,41.0,29.45,SSW,204,0.0,1.0,88,0.00,,,0.00,weatherlink.com 1.10,2013-11-22 07:29:00,
2013-11-22 02:44:00,44.4,41.0,29.44,SSE,148,0.0,1.0,88,0.00,,,0.00,weatherlink.com 1.10,2013-11-22 07:44:00,
2013-11-22 02:59:00,44.3,41.0,29.43,WSW,240,0.0,2.0,88,0.00,,,0.00,weatherlink.com 1.10,2013-11-22 07:59:00,
2013-11-22 03:14:00,44.3,41.0,29.43,WSW,240,1.0,1.0,88,0.00,,,0.00,weatherlink.com 1.10,2013-11-22 08:14:00,
2013-11-22 03:29:00,44.3,41.0,29.44,WSW,239,1.0,2.0,88,0.00,,,0.00,weatherlink.com 1.10,2013-11-22 08:29:00,
2013-11-22 03:44:00,44.2,41.0,29.44,West,266,1.0,2.0,88,0.00,,,0.00,weatherlink.com 1.10,2013-11-22 08:44:00,
2013-11-22 03:59:00,44.1,41.0,29.44,West,263,0.0,2.0,88,0.00,,,0.00,weatherlink.com 1.10,2013-11-22 08:59:00,
2013-11-22 04:14:00,44.0,41.0,29.44,SW,217,1.0,3.0,88,0.00,,,0.00,weatherlink.com 1.10,2013-11-22 09:14:00,
2013-11-22 04:29:00,43.8,41.0,29.44,WSW,256,0.0,3.0,88,0.00,,,0.00,weatherlink.com 1.10,2013-11-22 09:29:00,
2013-11-22 04:44:00,43.3,40.0,29.44,WNW,294,0.0,4.0,88,0.01,,,0.01,weatherlink.com 1.10,2013-11-22 09:44:00,
2013-11-22 04:59:00,43.1,40.0,29.44,West,263,1.0,3.0,88,0.01,,,0.01,weatherlink.com 1.10,2013-11-22 09:59:00,
2013-11-22 05:14:00,42.9,40.0,29.43,WSW,242,1.0,4.0,88,0.01,,,0.01,weatherlink.com 1.10,2013-11-22 10:14:00,
2013-11-22 05:29:00,42.5,39.0,29.44,NE,37,1.0,5.0,88,0.01,,,0.01,weatherlink.com 1.10,2013-11-22 10:29:00,
2013-11-22 05:44:00,41.9,39.0,29.43,West,259,1.0,4.0,88,0.00,,,0.01,weatherlink.com 1.10,2013-11-22 10:44:00,
2013-11-22 05:59:00,41.7,38.0,29.44,WSW,243,1.0,4.0,88,0.00,,,0.01,weatherlink.com 1.10,2013-11-22 10:59:00,
2013-11-22 06:14:00,41.4,38.0,29.44,West,281,2.0,4.0,88,0.00,,,0.01,weatherlink.com 1.10,2013-11-22 11:14:00,
2013-11-22 06:29:00,41.3,38.0,29.44,NW,318,1.0,5.0,88,0.00,,,0.01,weatherlink.com 1.10,2013-11-22 11:29:00,
2013-11-22 06:44:00,41.2,38.0,29.44,WNW,288,1.0,7.0,88,0.00,,,0.01,weatherlink.com 1.10,2013-11-22 11:44:00,
2013-11-22 06:59:00,41.2,38.0,29.45,West,278,2.0,6.0,88,0.00,,,0.01,weatherlink.com 1.10,2013-11-22 11:59:00,
2013-11-22 07:14:00,41.3,38.0,29.45,WNW,298,1.0,5.0,88,0.00,,,0.01,weatherlink.com 1.10,2013-11-22 12:14:00,
2013-11-22 07:29:00,41.3,38.0,29.46,NW,314,4.0,4.0,88,0.00,,,0.01,weatherlink.com 1.10,2013-11-22 12:29:00,
2013-11-22 07:44:00,41.3,38.0,29.46,West,281,3.0,5.0,88,0.00,,,0.01,weatherlink.com 1.10,2013-11-22 12:44:00,
2013-11-22 07:59:00,41.2,38.0,29.46,SW,236,3.0,10.0,88,0.00,,,0.01,weatherlink.com 1.10,2013-11-22 12:59:00,
2013-11-22 08:14:00,41.0,38.0,29.47,NNW,338,1.0,9.0,88,0.00,,,0.01,weatherlink.com 1.10,2013-11-22 13:14:00,
2013-11-22 08:29:00,40.8,38.0,29.47,SW,236,4.0,7.0,88,0.00,,,0.01,weatherlink.com 1.10,2013-11-22 13:29:00,
2013-11-22 08:44:00,40.3,37.0,29.48,NNE,13,12.0,14.0,88,0.00,,,0.01,weatherlink.com 1.10,2013-11-22 13:44:00,
2013-11-22 09:00:00,39.2,36.0,29.49,NW,304,9.0,15.0,87,0.00,,,0.01,weatherlink.com 1.10,2013-11-22 14:00:00,
2013-11-22 09:14:00,38.4,35.0,29.49,NNW,338,2.0,12.0,87,0.00,,,0.01,weatherlink.com 1.10,2013-11-22 14:14:00,
2013-11-22 09:29:00,37.9,35.0,29.49,NNE,21,4.0,11.0,88,0.00,,,0.01,weatherlink.com 1.10,2013-11-22 14:29:00,
2013-11-22 09:44:00,37.4,34.0,29.50,North,358,9.0,14.0,88,0.00,,,0.01,weatherlink.com 1.10,2013-11-22 14:44:00,
2013-11-22 10:00:00,37.3,34.0,29.51,WNW,293,3.0,16.0,87,0.00,,,0.01,weatherlink.com 1.10,2013-11-22 15:00:00,
2013-11-22 10:15:00,36.7,33.0,29.52,SW,231,8.0,10.0,87,0.00,,,0.01,weatherlink.com 1.10,2013-11-22 15:15:00,
2013-11-22 10:30:00,35.7,33.0,29.53,NE,40,2.0,11.0,88,0.01,,,0.02,weatherlink.com 1.10,2013-11-22 15:30:00,
2013-11-22 10:45:00,35.4,32.0,29.54,NW,307,4.0,12.0,88,0.01,,,0.02,weatherlink.com 1.10,2013-11-22 15:45:00,
2013-11-22 11:00:00,35.4,32.0,29.54,North,9,5.0,8.0,88,0.01,,,0.02,weatherlink.com 1.10,2013-11-22 16:00:00,
2013-11-22 11:15:00,35.5,32.0,29.54,SW,236,6.0,8.0,88,0.01,,,0.02,weatherlink.com 1.10,2013-11-22 16:15:00,
2013-11-22 11:30:00,35.4,32.0,29.54,WNW,298,8.0,11.0,88,0.00,,,0.02,weatherlink.com 1.10,2013-11-22 16:30:00,
2013-11-22 11:45:00,35.4,32.0,29.54,West,259,3.0,13.0,87,0.00,,,0.02,weatherlink.com 1.10,2013-11-22 16:45:00,
2013-11-22 12:00:00,35.4,32.0,29.54,WSW,248,6.0,13.0,87,0.00,,,0.02,weatherlink.com 1.10,2013-11-22 17:00:00,
2013-11-22 12:15:00,35.5,32.0,29.55,ENE,68,8.0,11.0,86,0.00,,,0.02,weatherlink.com 1.10,2013-11-22 17:15:00,
2013-11-22 12:30:00,35.6,32.0,29.55,West,264,6.0,16.0,85,0.00,,,0.02,weatherlink.com 1.10,2013-11-22 17:30:00,
2013-11-22 12:45:00,35.5,31.0,29.56,NW,314,6.0,15.0,83,0.00,,,0.02,weatherlink.com 1.10,2013-11-22 17:45:00,
2013-11-22 13:00:00,35.7,31.0,29.57,WNW,291,8.0,12.0,83,0.00,,,0.02,weatherlink.com 1.10,2013-11-22 18:00:00,
2013-11-22 13:15:00,35.6,30.0,29.56,WNW,289,11.0,19.0,80,0.00,,,0.02,weatherlink.com 1.10,2013-11-22 18:15:00,
2013-11-22 13:30:00,35.8,30.0,29.55,NNW,336,3.0,12.0,79,0.00,,,0.02,weatherlink.com 1.10,2013-11-22 18:30:00,
2013-11-22 13:45:00,35.9,30.0,29.56,WSW,239,3.0,15.0,78,0.00,,,0.02,weatherlink.com 1.10,2013-11-22 18:45:00,
2013-11-22 14:00:00,36.2,30.0,29.57,NW,316,4.0,14.0,78,0.00,,,0.02,weatherlink.com 1.10,2013-11-22 19:00:00,
2013-11-22 14:15:00,37.0,29.0,29.56,WSW,252,6.0,14.0,74,0.00,,,0.02,weatherlink.com 1.10,2013-11-22 19:15:00,
2013-11-22 14:30:00,37.7,29.0,29.56,NW,310,4.0,16.0,71,0.00,,,0.02,weatherlink.com 1.10,2013-11-22 19:30:00,
2013-11-22 14:45:00,38.3,29.0,29.56,NW,309,8.0,14.0,69,0.00,,,0.02,weatherlink.com 1.10,2013-11-22 19:45:00,
2013-11-22 15:00:00,37.5,29.0,29.56,WNW,293,8.0,12.0,70,0.00,,,0.02,weatherlink.com 1.10,2013-11-22 20:00:00,
2013-11-22 15:15:00,37.8,28.0,29.57,North,4,12.0,13.0,69,0.00,,,0.02,weatherlink.com 1.10,2013-11-22 20:15:00,
2013-11-22 15:30:00,37.2,27.0,29.59,WNW,301,11.0,17.0,68,0.00,,,0.02,weatherlink.com 1.10,2013-11-22 20:30:00,
2013-11-22 15:45:00,37.4,27.0,29.60,North,6,4.0,16.0,67,0.00,,,0.02,weatherlink.com 1.10,2013-11-22 20:45:00,
2013-11-22 16:00:00,37.8,27.0,29.60,NNE,25,10.0,14.0,65,0.00,,,0.02,weatherlink.com 1.10,2013-11-22 21:00:00,
2013-11-22 16:15:00,36.8,26.0,29.61,WSW,245,9.0,12.0,66,0.00,,,0.02,weatherlink.com 1.10,2013-11-22 21:15:00,
2013-11-22 16:30:00,36.0,26.0,29.62,NNE,25,4.0,14.0,67,0.00,,,0.02,weatherlink.com 1.10,2013-11-22 21:30:00,
2013-11-22 16:45:00,35.0,25.0,29.62,NNE,12,2.0,13.0,67,0.00,,,0.02,weatherlink.com 1.10,2013-11-22 21:45:00,
2013-11-22 17:00:00,34.4,26.0,29.63,WNW,284,5.0,12.0,71,0.00,,,0.02,weatherlink.com 1.10,2013-11-22 22:00:00,
2013-11-22 17:15:00,33.7,26.0,29.64,WNW,298,3.0,8.0,73,0.00,,,0.02,weatherlink.com 1.10,2013-11-22 22:15:00,
2013-11-22 17:31:00,33.1,25.0,29.64,WNW,284,5.0,11.0,73,0.00,,,0.02,weatherlink.com 1.10,2013-11-22 22:31:00,
2013-11-22 17:46:00,32.8,25.0,29.64,West,262,4.0,11.0,72,0.00,,,0.02,weatherlink.com 1.10,2013-11-22 22:46:00,
2013-11-22 18:01:00,32.1,24.0,29.64,WNW,287,2.0,8.0,72,0.00,,,0.02,weatherlink.com 1.10,2013-11-22 23:01:00,
2013-11-22 18:16:00,31.4,24.0,29.65,West,265,4.0,7.0,73,0.00,,,0.02,weatherlink.com 1.10,2013-11-22 23:16:00,
2013-11-22 18:31:00,31.2,23.0,29.66,West,266,2.0,9.0,73,0.00,,,0.02,weatherlink.com 1.10,2013-11-22 23:31:00,
2013-11-22 18:46:00,30.7,23.0,29.66,WSW,255,4.0,7.0,74,0.00,,,0.02,weatherlink.com 1.10,2013-11-22 23:46:00,
2013-11-22 19:01:00,30.2,23.0,29.66,NW,307,6.0,8.0,75,0.00,,,0.02,weatherlink.com 1.10,2013-11-23 00:01:00,
2013-11-22 19:16:00,30.0,23.0,29.66,West,274,5.0,9.0,75,0.00,,,0.02,weatherlink.com 1.10,2013-11-23 00:16:00,
2013-11-22 19:31:00,29.9,23.0,29.65,WSW,256,1.0,6.0,76,0.00,,,0.02,weatherlink.com 1.10,2013-11-23 00:31:00,
2013-11-22 19:46:00,29.6,23.0,29.65,SW,229,2.0,3.0,77,0.00,,,0.02,weatherlink.com 1.10,2013-11-23 00:46:00,
2013-11-22 20:01:00,28.9,23.0,29.65,WSW,240,0.0,1.0,78,0.00,,,0.02,weatherlink.com 1.10,2013-11-23 01:01:00,
2013-11-22 20:16:00,27.5,22.0,29.64,WSW,239,0.0,1.0,81,0.00,,,0.02,weatherlink.com 1.10,2013-11-23 01:16:00,
2013-11-22 20:31:00,26.9,22.0,29.64,WSW,240,1.0,1.0,83,0.00,,,0.02,weatherlink.com 1.10,2013-11-23 01:31:00,
2013-11-22 20:46:00,27.4,23.0,29.64,SW,221,1.0,2.0,82,0.00,,,0.02,weatherlink.com 1.10,2013-11-23 01:46:00,
2013-11-22 21:01:00,27.7,23.0,29.63,WSW,255,1.0,2.0,81,0.00,,,0.02,weatherlink.com 1.10,2013-11-23 02:01:00,
2013-11-22 21:16:00,27.6,23.0,29.64,WSW,246,1.0,2.0,81,0.00,,,0.02,weatherlink.com 1.10,2013-11-23 02:16:00,
2013-11-22 21:31:00,27.2,22.0,29.64,WSW,246,1.0,1.0,82,0.00,,,0.02,weatherlink.com 1.10,2013-11-23 02:31:00,
2013-11-22 21:46:00,27.1,23.0,29.64,SW,233,1.0,3.0,83,0.00,,,0.02,weatherlink.com 1.10,2013-11-23 02:46:00,
2013-11-22 22:01:00,27.3,23.0,29.63,SW,224,1.0,4.0,82,0.00,,,0.02,weatherlink.com 1.10,2013-11-23 03:01:00,
2013-11-22 22:16:00,27.0,23.0,29.63,WSW,240,1.0,3.0,83,0.00,,,0.02,weatherlink.com 1.10,2013-11-23 03:16:00,
2013-11-22 22:31:00,26.7,22.0,29.63,WSW,243,1.0,2.0,83,0.00,,,0.02,weatherlink.com 1.10,2013-11-23 03:31:00,
2013-11-22 22:46:00,26.2,22.0,29.63,WSW,248,1.0,2.0,85,0.00,,,0.02,weatherlink.com 1.10,2013-11-23 03:46:00,
2013-11-22 23:01:00,26.1,22.0,29.62,WSW,240,1.0,3.0,85,0.00,,,0.02,weatherlink.com 1.10,2013-11-23 04:01:00,
2013-11-22 23:16:00,25.4,22.0,29.62,SW,235,1.0,2.0,85,0.00,,,0.02,weatherlink.com 1.10,2013-11-23 04:16:00,
2013-11-22 23:31:00,25.1,22.0,29.62,WSW,242,0.0,1.0,86,0.00,,,0.02,weatherlink.com 1.10,2013-11-23 04:31:00,
2013-11-22 23:46:00,24.8,22.0,29.62,SW,224,1.0,1.0,87,0.00,,,0.02,weatherlink.com 1.10,2013-11-23 04:46:00,